Location: ???????
(55.9349°N, 37.8300°E)
Time: 12:06:59
(UTC+00:00)

Daily predictions for brighter satellites

Satellite Brightness Start Highest point End
(mag) Time Altitude Azimuth Time Altitude Azimuth Time Altitude Azimuth
CZ-2C R/B 3.8 17:43:44 10° NNE 17:48:19 58° ESE 17:52:48 10° S
COSMOS 2428 4.4 17:45:59 10° NNW 17:50:41 25° NNE 17:55:23 10° E
USA 267 4.2 17:45:42 10° ENE 17:50:42 23° SE 17:55:39 10° S
NOSS 3-2 (A) 4.0 17:46:23 10° S 17:51:35 35° ESE 17:57:28 10° ENE
Cosmos 614 Rocket 4.2 17:47:49 10° SSW 17:53:01 83° WNW 17:58:18 10° NNE
USA 186 4.3 17:52:24 10° WSW 17:53:10 11° W 17:53:56 10° WNW
OBJECT-B 2.0 17:50:13 10° S 17:53:24 45° W 17:56:36 10° NNW
Cosmos 1697 Rocket 4.2 17:49:46 10° NW 17:54:45 33° WSW 17:59:41 10° S
Cosmos 1833 Rocket 2.7 17:51:34 10° SSW 17:57:12 84° ESE 18:02:53 10° NE
Cosmos 1470 Rocket 4.1 17:53:55 10° SSE 17:58:02 40° E 18:02:08 10° NNE
Cosmos 2237 Rocket 4.3 17:56:25 10° NNW 18:00:32 20° NNE 18:04:37 10° ENE
NOSS 3-2 (C) 4.3 17:56:14 10° S 18:01:04 27° ESE 18:06:25 10° ENE
Meteor 1-4 Rocket 3.3 17:58:19 10° NNW 18:01:43 50° W 18:05:04 10° S
Sich 1 3.5 18:00:09 10° SSW 18:04:35 69° WNW 18:09:02 10° N
Cosmos 540 Rocket 4.0 18:00:02 10° NNW 18:05:04 48° NE 18:10:04 10° SE
SPOT 5 3.5 18:01:41 10° SE 18:05:40 37° ENE 18:09:47 10° N
Cosmos 1184 Rocket 2.9 18:03:33 10° S 18:06:46 55° E 18:10:02 10° NNE
Cosmos 1862 Rocket 3.8 18:03:11 10° NNW 18:07:41 77° W 18:12:06 10° S
Cosmos 1934 Rocket 4.1 18:02:02 10° S 18:08:24 77° E 18:14:46 10° NNE
Cosmos 2333 Rocket 3.6 18:04:21 10° NNW 18:09:30 31° NNE 18:14:37 10° E
SPOT 1/Viking Rocket 3.7 18:05:05 10° SSE 18:10:16 67° ENE 18:15:29 10° NNW
Cosmos 1437 Rocket 3.1 18:07:13 10° N 18:10:57 49° ENE 18:14:34 10° SE
Cosmos 405 Rocket 3.3 18:08:18 10° SSE 18:11:42 35° E 18:15:11 10° NNE
SL-27 R/B 4.1 18:13:03 11° SE 18:14:43 15° E 18:16:46 10° ENE
USA 32 4.1 18:10:01 10° S 18:15:11 64° E 18:20:23 10° NNE
Landsat 7 3.8 18:10:38 10° SSE 18:15:24 83° ENE 18:20:12 10° NNW
Resurs 01 Rocket 2.4 18:12:33 10° S 18:16:53 52° W 18:21:15 10° NNW
Cosmos 1515 4.0 18:14:52 10° N 18:18:39 53° ENE 18:22:10 11° SSE
ERBS 2.5 18:16:56 10° W 18:20:16 71° N 18:23:33 10° E
Meteor 1-19 Rocket 4.2 18:14:52 10° NNW 18:20:19 74° ENE 18:25:47 10° SSE
Cosmos 676 Rocket 4.0 18:15:12 10° SSW 18:20:30 70° ESE 18:25:51 10° NNE
ERS-1 Rocket 3.2 18:16:12 10° SE 18:21:07 58° ENE 18:26:04 10° N
GP-B 3.1 18:17:03 10° N 18:21:32 82° E 18:25:59 10° S
OPS 6432 4.4 18:17:53 10° SW 18:21:35 57° SE 18:24:35 10° ENE
Cosmos 841 Rocket 3.7 18:17:26 10° NNW 18:22:39 63° ENE 18:27:24 13° SE
Okean 1 3.3 18:22:13 10° NNW 18:26:19 86° ENE 18:30:22 10° SSE
USA 234 3.4 18:23:26 11° ESE 18:29:50 70° SSW 18:36:24 10° WNW
Cosmos 468 Rocket 4.3 18:24:44 10° NNW 18:30:03 68° WSW 18:35:17 10° SSE
ATLAS 3B R/B 3.8 18:27:32 10° SSE 18:31:52 19° ESE 18:36:18 10° ENE
Cosmos 1867 3.5 18:27:56 10° SW 18:33:22 74° SE 18:38:51 10° NE
CARTOSAT-1 3.6 18:29:48 12° SSE 18:33:43 68° ENE 18:38:02 10° N
Okean 3 4.3 18:32:47 10° N 18:36:49 38° ENE 18:39:55 16° SE
Meteor 2-4 Rocket 3.8 18:31:45 10° N 18:37:26 65° ENE 18:42:13 14° SSE
Cosmos 1933 Rocket 3.6 18:34:21 10° S 18:38:44 68° E 18:43:11 10° NNE
SL-4 R/B 2.2 18:38:12 10° WSW 18:41:53 41° S 18:44:49 13° ESE
IGS 5A 4.0 18:39:47 10° S 18:43:51 56° W 18:47:58 10° NNW
Cosmos 1814 Rocket 4.0 18:40:58 10° NNW 18:46:12 76° ENE 18:50:23 16° SE
CZ-2C R/B 4.1 18:42:29 10° N 18:47:15 38° WNW 18:52:02 10° SW
SL-16 R/B 2.5 18:41:49 10° NW 18:47:27 64° WSW 18:52:22 14° SSE
Meteor 1-14 Rocket 4.4 18:41:47 10° S 18:47:34 61° E 18:53:28 10° NNE
Iridium 4 Rocket 3.9 18:45:41 17° SE 18:48:18 32° E 18:52:00 10° NNE
Cosmos 2219 Rocket 3.1 18:43:00 10° NNW 18:48:22 41° NE 18:53:23 12° ESE
Cosmos 1869 Rocket 4.1 18:46:44 15° SSE 18:50:00 40° E 18:54:13 10° NNE
Cosmos 1954 Rocket 4.2 18:44:53 10° SSW 18:50:14 79° WNW 18:55:36 10° NNE
USA 238 DEB 3.6 18:43:50 10° SSW 18:50:27 67° SE 18:57:23 10° NE
USA 238 3.6 18:43:58 10° SSW 18:50:34 66° SE 18:57:30 10° NE
Spot 2 Rocket 4.1 18:45:57 10° S 18:50:57 56° WSW 18:55:59 10° NNW
BREEZE-M DEB (TANK) 3.4 18:51:17 10° WSW 18:54:20 42° S 19:02:43 10° ESE
Cosmos 1741 Rocket 4.1 18:49:42 10° S 18:54:49 55° ESE 19:00:01 10° NE
Cosmos 2322 4.2 18:49:39 10° NNW 18:55:15 54° NE 18:59:44 16° ESE
Okean 1-7 3.1 18:51:07 10° NNW 18:55:27 76° W 18:59:08 14° S
Cosmos 1703 Rocket 3.8 18:51:54 10° NNW 18:56:14 68° W 19:00:06 13° S
Cosmos 1570 Rocket 4.1 18:52:44 10° NNW 18:58:05 78° WSW 19:02:16 17° SSE
GENESIS II 4.4 18:56:49 10° NW 19:00:51 67° NE 19:03:36 19° ESE
CENTAUR R/B 2.7 18:55:20 10° SSW 19:01:17 54° SE 19:08:21 10° NE
Cosmos 2082 Rocket 2.7 18:55:41 10° SW 19:01:19 64° NW 19:06:59 10° NNE
Meteor 1-25 Rocket 4.4 18:56:26 10° SSW 19:02:01 74° WNW 19:07:44 10° NNE
Cosmos 1536 4.3 19:00:46 18° ESE 19:02:11 21° E 19:05:15 10° NE
Lacrosse 5 3.3 18:58:59 10° W 19:03:10 26° SW 19:06:26 14° S
Cosmos 1605 Rocket 4.2 18:58:41 10° SSW 19:04:46 71° WNW 19:10:53 10° N
Terra 1.8 19:01:13 18° SSE 19:04:48 83° ENE 19:09:37 10° NNW
Cosmos 2100 Rocket 4.1 19:00:45 13° S 19:06:08 59° E 19:12:12 10° NNE
Cosmos 2322 Rocket 2.6 19:00:39 10° NW 19:06:15 58° WSW 19:10:41 16° S
Cosmos 2208 Rocket 4.1 19:01:29 10° NNW 19:06:47 78° WSW 19:10:35 19° SSE
Cosmos 1763 Rocket 4.5 19:02:46 10° NW 19:07:46 42° WSW 19:12:26 12° S
Cosmos 1238 Rocket 3.3 19:06:11 10° SSW 19:09:01 43° WNW 19:11:59 10° N
Cosmos 2333 4.5 19:04:16 10° NNW 19:10:04 65° NE 19:14:16 19° SE
Cosmos 2173 Rocket 4.0 19:08:24 14° S 19:13:37 62° E 19:19:38 10° NNE
Cosmos 2237 4.3 19:08:16 10° NW 19:14:00 75° WSW 19:17:59 20° SSE
USA 276 4.0 19:12:28 10° WSW 19:14:35 17° SSW 19:14:46 16° SSW
SL-16 R/B 4.3 19:10:15 10° NNW 19:14:38 22° NNE 19:19:00 10° ENE
Geosat 4.5 19:12:52 17° ESE 19:16:36 54° NE 19:21:31 10° NNW
Cosmos 2360 Rocket 2.2 19:11:19 10° NW 19:17:01 78° WSW 19:20:54 21° SSE
H-2A R/B 4.5 19:14:05 10° N 19:18:03 47° WNW 19:22:01 10° SW
Cosmos 1733 Rocket 4.1 19:20:26 23° SE 19:22:12 31° E 19:26:06 10° NNE
ALOS 2 4.3 19:20:18 14° ESE 19:22:59 23° ENE 19:26:28 10° N
FALCON 9 DEB 3.3 19:20:19 10° WSW 19:23:44 52° S 19:25:31 25° ESE
Cosmos 2084 Rocket 3.5 19:19:50 10° SSW 19:23:56 51° SE 19:28:08 10° ENE
Cosmos 1725 Rocket 4.4 19:20:03 20° SSE 19:24:07 46° E 19:30:07 10° NNE
Cosmos 44 4.4 19:20:39 10° WNW 19:25:05 35° WSW 19:28:10 18° S
Cosmos 1500 3.0 19:25:02 21° S 19:27:24 82° E 19:31:12 10° NNE
Cosmos 1459 Rocket 4.0 19:23:40 14° S 19:29:08 77° E 19:35:33 10° NNE
Cosmos 2016 Rocket 4.1 19:28:46 20° SSE 19:33:16 61° E 19:39:34 10° NNE
SAR-Lupe-2 3.6 19:29:46 10° NNE 19:33:23 81° WNW 19:35:52 19° SSW
USA 267 3.3 19:28:17 10° ENE 19:34:44 56° SSE 19:41:09 10° SW
Cosmos 2346 Rocket 4.4 19:28:41 10° NNW 19:34:48 89° E 19:38:55 22° S
MTI 4.4 19:32:01 10° NNE 19:34:55 34° E 19:35:16 33° ESE
COSMOS 2428 3.0 19:30:20 10° NNW 19:36:04 65° NE 19:39:52 22° SE
Cosmos 1356 3.7 19:37:15 36° SE 19:38:10 47° E 19:41:29 10° NNE
Cosmos 1666 2.9 19:37:05 33° SSE 19:38:28 52° E 19:42:08 10° NNE
Cosmos 44 Rocket 3.4 19:35:31 10° NW 19:40:29 81° NE 19:43:33 24° SE
Cosmos 1242 Rocket 2.5 19:37:36 10° NNW 19:41:14 72° ENE 19:42:36 36° SSE
Cosmos 2221 Rocket 3.7 19:37:03 10° NNW 19:41:31 75° W 19:44:04 26° S
NOSS 3-2 (A) 3.7 19:35:53 10° WSW 19:41:54 80° NW 19:48:57 10° NE
SPOT 5 3.8 19:40:39 15° SSW 19:43:49 36° W 19:47:57 10° NNW
Cosmos 2237 Rocket 3.2 19:40:47 10° NNW 19:46:09 41° NE 19:50:40 14° ESE
Cosmos 540 Rocket 4.5 19:41:51 10° NW 19:46:37 38° WSW 19:49:56 18° SSW
SL-27 R/B 2.9 19:46:33 13° SW 19:49:26 57° WNW 19:52:44 10° NNE
NOSS 3-2 (C) 3.5 19:45:08 10° SW 19:51:07 88° SE 19:58:06 10° NE
Cosmos 836 Rocket 4.5 19:46:49 10° NNW 19:52:04 83° ENE 19:54:50 29° SSE
Cosmos 1378 3.4 19:48:45 10° N 19:52:27 55° ENE 19:53:40 36° SE
Cosmos 1743 3.9 19:53:16 26° ESE 19:54:01 28° E 19:57:24 10° NNE
Lacrosse 4 Rocket 2.1 19:53:39 31° SE 19:54:07 32° ESE 19:57:52 10° NE
Cosmos 1378 Rocket 3.7 19:49:57 10° N 19:54:24 63° ENE 19:56:17 32° SE
Cosmos 2333 Rocket 2.2 19:48:40 10° NW 19:54:30 89° WSW 19:57:45 27° SSE
ERBS 2.1 19:53:17 10° WNW 19:56:36 75° SSW 19:57:24 47° SE
Cosmos 2061 Rocket 3.9 19:52:30 21° S 19:56:54 83° E 20:03:09 10° NNE
Cosmos 1271 Rocket 2.9 19:55:19 10° N 19:59:04 58° ENE 20:00:19 37° SE
Cosmos 1066 Rocket 4.2 19:57:03 10° NNW 20:02:48 79° WSW 20:05:53 28° S
Meteor 1-11 Rocket 3.7 20:00:05 22° S 20:03:51 84° ESE 20:09:43 10° NNE
Cosmos 2233 Rocket 4.2 20:01:24 27° SSE 20:04:52 58° E 20:11:04 10° NNE
Cosmos 1802 Rocket 4.1 20:00:36 16° SSW 20:05:47 78° WNW 20:12:09 10° N
Cosmos 1544 4.3 20:13:03 26° E 20:13:23 26° E 20:16:31 10° NNE
USA 234 4.2 20:10:46 23° S 20:13:37 32° SW 20:19:22 10° WNW
Cosmos 1975 Rocket 4.0 20:10:01 10° N 20:14:16 40° ENE 20:16:03 27° ESE
Thor Agena Rocket 3.9 20:10:45 10° NNE 20:15:42 49° E 20:17:38 33° SSE
Cosmos 2344 4.3 20:07:47 10° NW 20:16:24 79° NNE 20:28:15 10° ESE
SL-4 R/B 2.6 20:17:35 10° W 20:20:23 33° SW 20:20:23 33° SW
ATLAS 3B R/B 2.5 20:14:53 10° SSW 20:21:24 66° SE 20:28:02 10° NE
COSMOS 2487 2.2 20:21:58 57° S 20:22:32 74° ESE 20:25:59 10° NNE
Spot 4 3.9 20:24:31 34° S 20:26:34 71° WSW 20:31:26 10° NNW
Iridium 4 Rocket 4.3 20:25:27 16° SW 20:28:17 34° WNW 20:32:06 10° N
Cosmos 2227 Rocket 4.2 20:27:48 12° ESE 20:28:53 13° E 20:31:14 10° ENE
SL-16 R/B 4.4 20:27:35 10° WNW 20:30:30 14° W 20:33:23 10° SW
Cosmos 2219 Rocket 2.4 20:27:01 10° NW 20:32:37 59° WSW 20:35:05 33° S
NOSS 0 Rocket 3.9 20:26:58 10° NW 20:33:16 89° SW 20:36:37 30° SSE
Cosmos 1707 4.1 20:32:14 10° N 20:35:44 30° ENE 20:37:01 24° ESE
MOS 1-B Rocket 3.8 20:30:22 10° NNE 20:36:05 88° WNW 20:39:23 26° SSW
Cosmos 1025 Rocket 4.4 20:34:02 10° N 20:37:48 29° ENE 20:39:34 21° ESE
Cosmos 783 Rocket 4.4 20:32:47 10° NNW 20:38:04 89° WSW 20:40:19 36° SSE
Cosmos 1536 3.5 20:36:28 27° SW 20:38:20 50° WNW 20:42:13 10° N
Cosmos 2322 4.5 20:34:05 10° NW 20:39:20 40° WSW 20:41:39 28° SSW
Cosmos 1674 Rocket 4.3 20:35:16 10° NNW 20:39:24 44° W 20:41:02 30° SW
ATLAS 5 CENTAUR R/B 3.7 20:36:38 10° W 20:39:25 24° SW 20:39:34 23° SSW
USA 238 DEB 4.4 20:34:58 10° WSW 20:41:39 58° NNW 20:48:42 10° ENE
USA 238 4.3 20:35:05 10° WSW 20:41:46 58° NNW 20:48:48 10° ENE
Terra 3.9 20:40:06 11° SW 20:43:11 18° W 20:46:30 10° NW
Cosmos 1833 4.2 20:42:36 20° SW 20:46:39 85° WNW 20:52:23 10° NE
Cosmos 1842 3.2 20:43:22 10° N 20:47:21 84° E 20:48:12 53° SSE
DNEPR-1 R/B 4.2 20:40:57 10° NW 20:47:22 83° NE 20:50:24 27° SE
EO 1 Del DPAF 3.1 20:44:16 10° NNE 20:48:03 75° ESE 20:48:44 56° S
Cosmos 2322 Rocket 4.4 20:46:46 10° WNW 20:49:07 13° W 20:51:29 10° WSW
Cosmos 1503 Rocket 4.3 20:48:41 37° SSE 20:50:32 55° ESE 20:55:47 10° NE
Meteor 2-11 Rocket 4.4 20:48:24 32° S 20:51:25 82° E 20:57:34 10° NNE
CENTAUR R/B 3.2 20:45:31 10° WSW 20:51:57 65° NNW 20:59:40 10° NE
Sich 1 Rocket 4.4 20:53:36 32° ESE 20:54:35 36° E 20:58:37 10° NNE
Okean 2 3.4 20:50:31 10° NNW 20:54:39 75° W 20:55:39 49° S
Cosmos 1486 Rocket 3.9 20:53:33 31° SSW 20:56:07 90° SSE 21:01:22 10° NNE
ALOS 2 2.7 20:57:42 43° SSW 20:58:58 65° WSW 21:03:22 10° NNW
Cosmos 1733 Rocket 4.1 20:57:31 22° SW 20:59:54 41° WNW 21:04:08 10° N
SL-16 R/B 2.9 20:54:32 10° NNW 21:00:06 50° NE 21:04:29 16° ESE
Cosmos 2360 Rocket 4.1 20:56:26 10° WNW 21:00:10 18° W 21:02:39 14° SW
Meteor 1-21 4.2 20:57:13 10° NNW 21:03:04 85° WSW 21:05:34 36° S
Cosmos 2084 Rocket 4.4 20:59:20 10° W 21:03:30 50° NNW 21:07:47 10° NE
Cosmos 1975 2.7 21:07:59 55° S 21:08:48 77° E 21:12:52 10° NNE
Cosmos 773 Rocket 3.9 21:07:49 10° NNW 21:12:58 71° WSW 21:14:44 41° S
SL-24 DEB 4.2 21:09:05 10° N 21:13:55 89° ESE 21:15:29 43° S
SL-16 R/B 4.2 21:09:05 10° ESE 21:14:20 29° NE 21:19:34 10° N
Cosmos 1536 Rocket 4.1 21:12:49 10° N 21:17:03 49° ENE 21:18:30 34° ESE
USA 267 3.2 21:11:30 10° ENE 21:18:05 89° N 21:24:40 10° W
COSMOS 2428 3.7 21:14:58 10° NW 21:20:03 33° WSW 21:21:52 27° SW
Cosmos 968 Rocket 3.6 21:18:04 29° SW 21:20:44 71° WNW 21:25:54 10° NNE
Cosmos 2297 Rocket 3.1 21:20:13 28° SE 21:21:42 32° ESE 21:26:40 10° NE
Cosmos 1980 3.8 21:16:36 10° NW 21:22:14 62° WSW 21:24:20 38° S
Meteor 2-9 Rocket 4.2 21:21:24 37° S 21:23:47 83° ESE 21:29:36 10° NNE
Cosmos 1538 Rocket 3.9 21:18:46 10° NNW 21:23:58 85° WSW 21:25:57 39° SSE
Helios 1A 2.9 21:22:59 51° S 21:24:01 82° WSW 21:28:17 10° NNW
Cosmos 1782 Rocket 3.4 21:23:22 48° SSW 21:24:32 86° WNW 21:28:55 10° NNE
Cosmos 1607 4.0 21:18:53 10° NW 21:25:22 86° SW 21:29:33 24° SE
In-Cosmos 22 4.2 21:23:12 10° NNW 21:28:48 74° ENE 21:31:15 34° SSE
Cosmos 1743 3.9 21:28:20 27° WSW 21:29:42 36° WNW 21:33:21 10° N
Cosmos 2237 Rocket 2.3 21:24:57 10° NW 21:30:30 58° WSW 21:32:28 38° S
Cosmos 1908 Rocket 4.3 21:30:25 31° SW 21:32:05 46° WNW 21:36:19 10° N
Lacrosse 4 Rocket 2.1 21:29:55 20° WSW 21:32:41 51° NW 21:36:45 10° NE
Cosmos 2219 3.7 21:31:18 34° SSE 21:32:58 42° ESE 21:38:14 10° NE
Cosmos 2026 Rocket 4.4 21:27:05 10° N 21:33:06 56° ENE 21:36:35 26° SE
Cosmos 2333 Rocket 3.7 21:33:46 10° NW 21:38:04 22° WSW 21:39:44 19° SW
Timation 2 Rocket 3.9 21:41:09 35° S 21:43:41 65° ESE 21:49:38 10° NE
Cosmos 1544 4.3 21:47:21 29° WSW 21:48:18 34° WNW 21:51:44 10° N
Meteor 1-12 Rocket 4.5 21:45:54 35° S 21:48:30 69° E 21:54:31 10° NNE
Cosmos 2112 Rocket 4.5 21:43:24 10° NNW 21:48:36 57° NE 21:52:04 20° SE
Cosmos 158 Rocket 4.3 21:45:11 10° NNW 21:50:34 67° ENE 21:53:51 24° SE
Cosmos 1437 3.2 21:48:41 10° NNW 21:51:12 46° WNW 21:51:12 46° WNW
Cosmos 1975 Rocket 4.2 21:48:03 10° NNW 21:52:04 33° W 21:53:12 28° WSW
Cosmos 1634 Rocket 4.5 21:50:33 28° SSE 21:53:36 50° E 21:59:33 10° NNE
Cosmos 1354 Rocket 4.3 21:53:25 28° SW 21:56:13 64° WNW 22:01:33 10° NNE
Cosmos 1674 2.9 21:53:46 10° N 21:57:30 63° ENE 21:58:19 48° SE
Cosmos 1464 Rocket 4.2 21:54:49 30° SSW 21:57:58 66° WNW 22:04:08 10° N
Cosmos 1300 Rocket 3.4 21:57:17 50° S 21:58:23 82° E 22:02:44 10° NNE
Cosmos 1943 4.4 21:54:55 10° NNW 22:00:14 41° NE 22:05:33 10° ESE
Meteor 2-5 Rocket 4.0 21:57:05 10° N 22:02:40 61° ENE 22:05:56 25° SE
CZ-2D R/B 3.9 21:59:29 10° NE 22:03:44 22° E 22:06:57 14° SE
Cosmos 1680 Rocket 3.5 21:58:57 10° NNW 22:04:14 79° ENE 22:07:04 28° SE
Nadezhda 4 Rocket 4.3 21:58:36 10° NNW 22:04:42 54° W 22:07:27 31° SSW
MOZ.5/SAFIR/RUBIN 5/SL-8 4.5 22:03:33 23° SE 22:06:19 50° ENE 22:10:54 10° N
Helios 1B rocket 2.8 22:03:42 10° NNE 22:07:43 51° E 22:08:43 41° SE
Cosmos 1428 Rocket 4.5 22:01:55 10° N 22:08:15 86° E 22:11:37 30° SSE
Cosmos 1766 4.5 22:10:01 27° ESE 22:11:04 31° E 22:14:31 10° NNE
Cosmos 1707 3.6 22:08:03 10° NNW 22:11:39 35° W 22:12:09 33° WSW
Cosmos 2227 Rocket 2.4 22:09:36 35° S 22:11:47 58° ESE 22:17:21 10° NE
ATLAS 3B R/B 3.3 22:05:50 10° WSW 22:12:20 56° NNW 22:19:00 10° NE
Meteor 2-13 Rocket 4.4 22:07:51 10° NNW 22:13:58 73° W 22:16:50 33° S
Okean 2 Rocket 3.2 22:12:54 42° SSW 22:14:19 70° WNW 22:18:51 10° N
Cosmos 1777 Rocket 4.0 22:12:29 37° SSW 22:14:38 85° ESE 22:19:59 10° NNE
Cosmos 2219 Rocket 4.2 22:12:56 10° WNW 22:15:25 13° W 22:16:46 12° WSW
Cosmos 1025 Rocket 3.6 22:11:30 10° NNW 22:15:34 43° W 22:16:26 37° SW
Okean 1 Rocket 3.6 22:14:30 35° SE 22:15:54 49° E 22:20:09 10° NNE
Meteor 1-29 3.8 22:13:32 10° NNE 22:16:48 38° E 22:17:19 35° ESE
SJ 16-02 2.4 22:18:08 29° SE 22:19:23 35° ESE 22:23:25 10° NE
Cosmos 1733 4.4 22:20:05 28° SE 22:21:12 34° E 22:24:43 10° NNE
CZ-4 R/B 3.9 22:17:16 10° NNE 22:22:19 87° ESE 22:24:20 37° SSW
Cosmos 1092 Rocket 4.2 22:18:12 10° NNW 22:24:20 59° W 22:27:10 32° SSW
NOSS 8 (A) 4.1 22:25:25 67° W 22:25:40 73° NW 22:28:46 10° NE
Cosmos 1626 2.6 22:23:28 10° N 22:27:10 57° ENE 22:28:26 36° SE
UNK 4.3 22:25:25 21° SE 22:28:24 55° ENE 22:33:00 10° N
Okean 1-7 Rocket 4.5 22:25:33 10° N 22:29:50 45° ENE 22:32:39 19° SE
Cosmos 2034 Rocket 4.4 22:26:37 27° SW 22:29:59 56° WNW 22:36:15 10° N
Landsat 4 3.9 22:27:08 10° N 22:30:54 64° WNW 22:31:50 45° SW
Cosmos 724 4.3 22:26:03 10° NW 22:32:03 82° SW 22:38:08 10° SE
Cosmos 1805 3.5 22:32:35 43° SSE 22:33:38 61° E 22:37:29 10° NNE
Cosmos 923 Rocket 4.3 22:31:41 10° NW 22:36:52 52° WSW 22:38:48 35° SSW
Cosmos 2082 4.0 22:34:49 31° S 22:37:15 54° ESE 22:42:43 10° NE
Spot 1 3.8 22:39:25 37° SSE 22:40:58 89° WSW 22:45:05 10° NNW
Resurs 1-4 Rocket 3.1 22:36:29 10° NNE 22:41:26 38° E 22:44:27 21° SSE
CENTAUR R/B 3.9 22:37:04 10° WNW 22:43:49 48° N 22:51:42 10° ENE
Cosmos 1455 Rocket 4.4 22:41:31 19° SE 22:43:54 33° E 22:47:54 10° NNE
SL-16 R/B 2.6 22:38:51 10° NW 22:44:15 45° WSW 22:46:18 32° SSW
Cosmos 2151 Rocket 4.1 22:45:26 33° SW 22:47:02 49° WNW 22:51:20 10° N
SL-14 R/B 3.2 22:45:13 10° NNW 22:49:10 87° ENE 22:50:33 39° SSE
Cosmos 1892 Rocket 3.6 22:46:57 10° NNW 22:51:27 84° ENE 22:53:36 30° SSE
Cosmos 2263 Rocket 3.8 22:49:31 14° SE 22:52:50 23° ESE 22:57:06 10° NE
Cosmos 2098 Rocket 3.9 22:49:32 10° N 22:54:42 71° ENE 22:59:48 16° SSE
SL-16 R/B 2.5 22:52:56 21° SSE 22:57:24 83° WSW 23:03:42 10° NNW
PSLV R/B 4.5 22:55:03 10° N 22:59:30 45° WNW 23:01:46 26° WSW
CZ-4C R/B 3.1 22:58:24 36° SSE 22:59:47 83° ENE 23:03:31 10° NNW
NOSS 3-1 (C) 4.0 22:57:24 26° S 23:00:06 42° ESE 23:06:13 10° NE
Cosmos 1655 Rocket 4.0 22:54:16 10° NNW 23:00:35 87° W 23:04:51 22° S
USA 267 3.3 22:54:35 10° E 23:01:09 85° N 23:07:44 10° WNW
DELTA 2 DEB (DPAF) 4.1 23:02:23 33° S 23:04:16 65° WSW 23:08:43 10° NNW
Uosat 12 SS-18 rocket 4.2 23:02:10 26° WSW 23:04:48 73° NW 23:09:09 10° NE
Cosmos 2297 Rocket 2.4 23:02:01 24° SW 23:05:27 65° NW 23:11:07 10° NNE
Meteor 1-15 Rocket 4.4 23:05:38 28° SW 23:08:37 64° WNW 23:14:11 10° N
Lacrosse 4 Rocket 3.9 23:09:08 10° WNW 23:12:14 20° NNW 23:15:18 10° NNE
Cosmos 2237 Rocket 4.1 23:11:02 10° WNW 23:13:24 13° W 23:14:16 12° WSW
Meteor 1-24 Rocket 3.7 23:08:40 10° NNW 23:14:01 57° W 23:16:49 27° SSW
ADEOS II 3.4 23:10:28 10° NNE 23:15:12 32° E 23:19:38 11° SSE
Cosmos 1461 3.1 23:13:38 33° SSW 23:15:34 69° SE 23:20:13 10° NE
Cosmos 2219 3.8 23:13:13 19° WSW 23:17:05 51° NW 23:22:36 10° NNE
IRAS Rocket 4.3 23:16:04 24° S 23:19:27 60° WSW 23:25:02 10° NNW
Cosmos 2279 Rocket 4.0 23:20:54 25° SSW 23:24:42 70° WNW 23:30:57 10° N
Cosmos 1603 3.7 23:19:08 10° NW 23:24:51 67° WSW 23:30:31 10° SSE
BREEZE-M TANK 4.3 23:25:51 17° SSE 23:25:51 17° SSE 23:28:30 10° SE
GEOS 3 Rocket 4.3 23:22:33 10° NE 23:27:43 44° SE 23:30:53 22° S
Cosmos 1937 Rocket 3.8 23:24:35 23° S 23:27:48 61° ESE 23:33:03 10° NNE
Cosmos 1726 3.5 23:27:44 15° SSE 23:30:14 33° E 23:33:34 10° NNE
Cosmos 1544 Rocket 3.9 23:28:26 21° S 23:31:17 62° E 23:35:42 10° NNE
Cosmos 990 Rocket 3.9 23:29:02 26° SSW 23:32:03 87° ESE 23:37:15 10° NNE
Cosmos 2180 Rocket 4.5 23:28:40 23° SSW 23:32:39 75° WNW 23:38:49 10° N
CZ-4B R/B 4.0 23:29:37 10° NNE 23:34:16 50° E 23:37:48 17° S
USA 229 DEB 3.9 23:32:46 22° SSW 23:37:05 60° SE 23:43:57 10° NE
USA 229 3.9 23:32:52 22° SSW 23:37:10 60° SE 23:44:00 10° NE
Cosmos 1758 3.5 23:36:38 23° S 23:39:01 70° E 23:43:01 10° NNE
Cosmos 1340 Rocket 2.8 23:37:29 25° S 23:39:42 75° E 23:43:39 10° NNE
COBE Rocket 3.7 23:36:41 18° S 23:40:08 75° WSW 23:44:50 10° NNW
Helios 1B rocket 4.0 23:39:22 10° N 23:42:46 25° WNW 23:45:01 16° WSW
Cosmos 1898 Rocket 3.5 23:39:48 24° SSW 23:43:04 85° WNW 23:48:19 10° NNE
CZ-2D R/B 2.2 23:38:55 10° NNE 23:44:27 82° WNW 23:48:16 21° SSW
Cosmos 1943 3.2 23:39:02 10° NW 23:44:33 58° WSW 23:50:03 10° SSE
ARIANE 5 R/B 4.0 23:40:24 10° NNE 23:45:05 32° E 23:49:45 10° SSE
Meteor 2-14 Rocket 4.4 23:39:46 10° NNW 23:45:53 87° ENE 23:51:58 10° SSE
Cosmos 1602 Rocket 3.5 23:42:24 10° N 23:46:48 84° ENE 23:50:50 12° SSE
NOSS 2-3 (C) 4.5 23:44:18 21° S 23:46:54 44° SE 23:51:57 10° ENE
Cosmos 1766 4.3 23:45:23 22° WSW 23:47:08 32° WNW 23:50:40 10° N
Cosmos 1703 4.2 23:43:33 10° N 23:47:27 49° ENE 23:51:18 10° SSE
Cosmos 1900 4.5 23:43:08 10° NW 23:48:18 84° NE 23:53:28 10° SE
NOSS 3-1 (A) 3.8 23:44:33 20° SSW 23:48:21 52° SE 23:54:47 10° NE
SL-08 R/B 3.7 23:43:31 10° SSE 23:48:26 70° ENE 23:53:22 10° NNW
Meteor 1-22 Rocket 4.4 23:50:36 21° SW 23:54:02 55° WNW 23:59:23 10° N
Okean 1 Rocket 4.4 23:51:41 17° WSW 23:54:03 26° WNW 23:57:49 10° N
Cosmos 1953 2.8 23:52:42 15° S 23:55:54 57° E 23:59:55 10° NNE
